Saint Louis, MO

3:19 AM CDT on October 01, 2014 (GMT -0500)
Saint Louis Downtown | Change Station
CLOSE
Current Station
Airport
Location: Cahokia,
Elevation: 410 ft
Nearby Weather Stations

Elev 410 ft 38.57 °N, 90.16 °W | Updated 26 minutes ago

Clear
Clear
64 °F
Feels Like 64 °F
N
5
Wind Variable Wind from East

Today
High -- | Low -- °F
--% Chance of Precip.
Yesterday
High -- | Low -- °F
Precip. -- in
6:56 AM 6:43 PM
Waxing Crescent, 45% visible
Pressure 29.89 in
Visibility 10.0 miles
Clouds Clear
Dew Point 60 °F
Humidity 87%
Rainfall 0.00 in
Snow Depth Not available.
UV 0 out of 12
Pollen 5.40 out of 12
PM2.5 Moderate
Flu Activity Not available.
METAR KCPS 010753Z AUTO 10004KT 10SM CLR 18/16 A2990 RMK AO2 SLP120 T01780156 TSNO

More Conditions Fewer Conditions

Pressure 29.89 in
Visibility 10.0 miles
Clouds Clear
Dew Point 60 °F
Humidity 87%
Rainfall 0.00 in
Snow Depth Not available.
UV 0 out of 12
Pollen 5.40 out of 12
PM2.5 Moderate
Flu Activity Not available.
METAR KCPS 010753Z AUTO 10004KT 10SM CLR 18/16 A2990 RMK AO2 SLP120 T01780156 TSNO

More Conditions Fewer Conditions

10-Day Weather Forecast

Almanac

Astronomy

Oct. 01, 2014 Rise Set
Actual Time 6:56 AM CDT 6:43 PM CDT
Civil Twilight 6:30 AM CDT 7:09 PM CDT
Nautical Twilight 5:59 AM CDT 7:40 PM CDT
Astronomical Twilight 5:28 AM CDT 8:11 PM CDT
Moon 1:54 PM CDT No Moon Set
Length of Visible Light 12h 39m
Length of Day
11h 46m
Tomorrow will be 2m 29s shorter.
Waxing Crescent, 45% of the Moon is Illuminated
Today
Waxing Crescent
Oct 1
First Quarter
Oct 8
Full
Oct 15
Last Quarter
Oct 23
New

Today's Extremes

State Highs State Lows

Community

WunderPhotos

Upload Photos

1,757,902 photos uploaded!

Nearby

Air Quality

  Air Quality AQ Index Pollutant
Yesterday Moderate
OZONE
Yesterday Moderate
PM2.5
Current Moderate
PM2.5
Wednesday Good
PM2.5

Snow Depth

Station Depth Elevation
No new snow has been reported.

Earthquake Activity

City Distance Mag. Time & Date
No recent earthquake activity has been reported nearby.
Minimum magnitude displayed is 2.5.

Coastal Water Temperatures

Place Temperature
No Stations Reporting

Nearby Weather Stations